OE5XCL Weather Reports


Display with metric or nautical units.
time (UTC)temp
F
wind
direction
speed
MPH
gust
MPH
rain 1hr
in
rain 24hr
in
rain mn
in
humidity
%
barometer
mb
20260502163050 0 100 4.0 9.0 0.00 0.00 0.00 1017.2
20260502161546 0 98 2.0 10.0 0.00 0.00 0.00 1017.4
20260502151528 0 76 4.0 9.0 0.00 0.00 0.00 1018.2
20260502123039 0 101 5.0 13.0 0.00 0.00 0.00 1020.2
20260502121535 0 95 9.0 13.0 0.00 0.00 0.00 1020.4
20260502114530 0 113 5.0 13.0 0.00 0.00 0.00 1020.7
20260502113022 0 94 10.0 15.0 0.00 0.00 0.00 1021.0
20260502111522 0 135 4.0 10.0 0.00 0.00 0.00 1021.1
20260502110113 0 84 5.0 12.0 0.00 0.00 0.00 1021.3
20260502104508 0 57 9.0 14.0 0.00 0.00 0.00 1021.5
20260502103004 0 80 9.0 14.0 0.00 0.00 0.00 1021.7
20260502101621 0 85 7.0 15.0 0.00 0.00 0.00 1021.9
20260502100113 0 136 7.0 17.0 0.00 0.00 0.00 1022.1
20260502071506 0 96 5.0 8.0 0.00 0.00 0.00 1023.8
20260502070002 0 77 2.0 7.0 0.00 0.00 0.00 1023.8
20260502064600 0 106 5.0 9.0 0.00 0.00 0.00 1023.8
20260502063057 0 83 0.0 4.0 0.00 0.00 0.00 1024.0
20260502061548 0 93 4.0 7.0 0.00 0.00 0.00 1024.0
20260502060043 0 101 1.0 3.0 0.00 0.00 0.00 1024.1
20260502054541 0 116 0.0 1.0 0.00 0.00 0.00 1024.2
20260502053041 0 117 0.0 0.0 0.00 0.00 0.00 1024.3
20260502051530 0 117 0.0 0.0 0.00 0.00 0.00 1024.3
20260502050026 0 117 0.0 0.0 0.00 0.00 0.00 1024.3
20260502044522 0 117 0.0 0.0 0.00 0.00 0.00 1024.2
20260502043021 0 117 0.0 0.0 0.00 0.00 0.00 1024.3
20260502041513 0 117 0.0 0.0 0.00 0.00 0.00 1024.2
20260502040012 0 117 0.0 0.0 0.00 0.00 0.00 1024.2
20260502034504 0 117 0.0 0.0 0.00 0.00 0.00 1024.1
20260502033059 0 117 0.0 0.0 0.00 0.00 0.00 1024.1
20260502031557 0 117 0.0 0.0 0.00 0.00 0.00 1024.1
20260502030050 0 117 0.0 0.0 0.00 0.00 0.00 1024.2
20260502024547 0 117 0.0 0.0 0.00 0.00 0.00 1024.2
20260502023044 0 117 0.0 0.0 0.00 0.00 0.00 1024.2
20260502021540 0 117 0.0 0.0 0.00 0.00 0.00 1024.3
20260502020034 0 117 0.0 0.0 0.00 0.00 0.00 1024.3
20260502014533 0 117 0.0 0.0 0.00 0.00 0.00 1024.3
20260502013026 0 117 0.0 0.0 0.00 0.00 0.00 1024.5
20260502011541 0 117 0.0 0.0 0.00 0.00 0.00 1024.5
20260502010019 0 117 0.0 0.0 0.00 0.00 0.00 1024.7
20260502004513 0 117 0.0 0.0 0.00 0.00 0.00 1024.7
20260502003008 0 117 0.0 0.0 0.00 0.00 0.00 1024.7
20260502001508 0 117 0.0 0.0 0.00 0.00 0.00 1024.8
20260502000115 0 117 0.0 0.0 0.00 0.00 0.00 1024.8
20260501234555 0 117 0.0 0.0 0.00 0.00 0.00 1025.0
20260501233051 0 117 0.0 0.0 0.00 0.00 0.00 1025.1
20260501231552 0 117 0.0 0.0 0.00 0.00 0.00 1025.2
20260501230045 0 117 0.0 0.0 0.00 0.00 0.00 1025.2
20260501224537 0 117 0.0 0.0 0.00 0.00 0.00 1025.2
20260501223032 0 117 0.0 0.0 0.00 0.00 0.00 1025.2
20260501221527 0 117 0.0 0.0 0.00 0.00 0.00 1025.2
20260501220036 0 117 0.0 0.0 0.00 0.00 0.00 1025.2
20260501214524 0 117 0.0 0.0 0.00 0.00 0.00 1025.2
20260501213029 0 117 0.0 0.0 0.00 0.00 0.00 1025.1
20260501211522 0 117 0.0 0.0 0.00 0.00 0.00 1025.1
20260501210021 0 117 0.0 0.0 0.00 0.00 0.00 1025.1
20260501204522 0 117 0.0 0.0 0.00 0.00 0.00 1025.1
20260501203023 0 117 0.0 0.0 0.00 0.00 0.00 1025.1
20260501201520 0 116 0.0 3.0 0.00 0.00 0.00 1025.2
20260501200019 0 131 0.0 0.0 0.00 0.00 0.00 1025.1
20260501194519 0 131 0.0 0.0 0.00 0.00 0.00 1025.0
20260501193032 0 131 0.0 0.0 0.00 0.00 0.00 1025.0
20260501191528 0 131 0.0 0.0 0.00 0.00 0.00 1025.0
20260501190043 0 131 0.0 0.0 0.00 0.00 0.00 1025.0
20260501184531 0 131 0.0 0.0 0.00 0.00 0.00 1024.8
20260501183021 0 131 0.0 0.0 0.00 0.00 0.00 1024.7
20260501181516 0 131 0.0 0.0 0.00 0.00 0.00 1024.6
20260501180017 0 131 0.0 2.0 0.00 0.00 0.00 1024.5
20260501174516 0 131 0.0 3.0 0.00 0.00 0.00 1024.5
20260501173011 0 130 0.0 2.0 0.00 0.00 0.00 1024.3
20260501171507 0 130 0.0 3.0 0.00 0.00 0.00 1024.3
20260501170002 0 130 1.0 7.0 0.00 0.00 0.00 1024.3
20260501164603 0 131 0.0 10.0 0.00 0.00 0.00 1024.4